Location: Dresden
(51.0483°N, 13.7137°E)
Time: 18:50:36
(UTC+02:00)

ISS - Visible Passes

Search period start: 26 March 2017 00:00
Search period end: 05 April 2017 01:00
Orbit: 399 x 409 km, 51.6° (Epoch: 27 March)

Date Brightness Start Highest point End Pass type
(mag) Time Alt. Az. Time Alt. Az. Time Alt. Az.
28 Mar -2.5 20:59:35 10° SSW 21:01:52 23° SSE 21:01:52 23° SSE visible
29 Mar -1.9 20:08:05 10° S 20:10:04 15° SE 20:12:03 10° ESE visible
29 Mar -2.8 21:42:49 10° WSW 21:45:00 36° SW 21:45:00 36° SW visible
30 Mar -3.3 20:50:36 10° SW 20:53:42 40° SSE 20:55:12 24° E visible
30 Mar -1.4 22:26:46 10° W 22:27:52 20° W 22:27:52 20° W visible
31 Mar -4.0 21:34:20 10° WSW 21:37:36 83° SSE 21:37:53 72° E visible
01 Apr -3.8 20:41:56 10° WSW 20:45:11 64° SSE 20:47:46 15° E visible
01 Apr -2.3 22:18:22 10° W 22:20:25 35° W 22:20:25 35° W visible
02 Apr -3.8 21:25:54 10° W 21:29:11 81° N 21:30:11 41° ENE visible
02 Apr -0.8 23:02:25 10° W 23:02:50 13° W 23:02:50 13° W visible
03 Apr -3.9 20:33:25 10° WSW 20:36:41 88° S 20:39:52 11° E visible
03 Apr -3.1 22:09:56 10° W 22:12:30 52° WNW 22:12:30 52° WNW visible
04 Apr -3.8 21:17:26 10° W 21:20:43 78° N 21:22:07 31° E visible
04 Apr -1.1 22:53:56 10° W 22:54:46 16° W 22:54:46 16° W visible
